Regional Weather Roundup
Issued by NWS

Home | Current Version | Previous Version | Graphics & Text | Print | Product List | Glossary On
Versions: 1 2 3 4 5 6 7 8 9 10 11 12 13 14 15 16 17 18 19 20 21 22 23 24 25 26 27 28 29 30 31 32 33 34 35 36 37 38 39 40 41 42 43 44 45 46 47 48 49 50
000
ASUS43 KMKX 261811
RWRWI

WISCONSIN REGIONAL WEATHER ROUNDUP
NATIONAL WEATHER SERVICE MILWAUKEE/SULLIVAN WI
1200 PM CST MON JAN 26 2015

NOTE: "FAIR" INDICATES FEW OR NO CLOUDS BELOW 12,000 FEET WITH NO
SIGNIFICANT WEATHER AND/OR OBSTRUCTIONS TO VISIBILITY.

WIZ001-002-006>008-014>016-023>028-261900-
NORTHWEST WISCONSIN

CITY           SKY/WX    TMP DP  RH WIND       PRES   REMARKS
SUPERIOR ARPT  LGT SNOW  26  25  94 SW5       29.70S WCI  21
6HR MIN TEMP:  22; 6HR MAX TEMP:  26; 6HR PCP:  0.01;

ASHLAND        LGT SNOW  24  19  81 S6        29.71F WCI  17
6HR MIN TEMP:  19; 6HR MAX TEMP:  24; 6HR PCP:  0.03;

HAYWARD        CLOUDY    22  18  85 S9        29.70S FOG     WCI  12
6HR MIN TEMP:  18; 6HR MAX TEMP:  22; 6HR PCP:  0.05;

SIREN          CLOUDY    29  28  96 CALM      29.70R FOG
6HR MIN TEMP:  22; 6HR MAX TEMP:  29;

CUMBERLAND     LGT SNOW  25  23  93 SE6       29.69F VSB 1   WCI  18
RICE LAKE      LGT SNOW  23  21  91 SE6       29.72F WCI  16
6HR MIN TEMP:  19; 6HR MAX TEMP:  23;

CHETEK         LGT SNOW  22  20  92 SE5       29.72S WCI  16
6HR MIN TEMP:  19; 6HR MAX TEMP:  22;

LADYSMITH      MIX PCPN  22  20  93 S5        29.73F WCI  15
6HR MIN TEMP:  18; 6HR MAX TEMP:  22; 6HR PCP:  0.02;

EAU CLAIRE     LGT SNOW  24  21  88 S8        29.72F FOG     WCI  15
6HR MIN TEMP:  20; 6HR MAX TEMP:  24; 6HR PCP:  0.01;

MENOMONIE      MIX PCPN  27  25  94 E6        29.71F WCI  20
6HR MIN TEMP:  22; 6HR MAX TEMP:  27; 6HR PCP:  0.01;

NEW RICHMOND   CLOUDY    34  30  85 CALM      29.70S
6HR MIN TEMP:  23; 6HR MAX TEMP:  34; 6HR PCP:  0.01;

OSCEOLA        CLOUDY    35  33  90 W3        29.73S
6HR MIN TEMP:  24; 6HR MAX TEMP:  35; 6HR PCP:  0.01;

$$

WIZ003>005-009-010-017-018-261900-
NORTH CENTRAL WISCONSIN

CITY           SKY/WX    TMP DP  RH WIND       PRES   REMARKS
MANITOWISH WTR LGT SNOW  17  14  86 S7        29.70S WCI   8
6HR MIN TEMP:  12; 6HR MAX TEMP:  17;

ARBOR VITAE    LGT SNOW  19  15  85 S7        29.71F WCI  10
6HR MIN TEMP:  17; 6HR MAX TEMP:  19; 6HR PCP:  0.02;

WOODRUFF       LGT SNOW  19  15  85 S7        29.71F WCI  10
6HR MIN TEMP:  17; 6HR MAX TEMP:  19; 6HR PCP:  0.02;

RHINELANDER    LGT SNOW  17  13  84 SE8       29.73F VSB 1   WCI   7
6HR MIN TEMP:  13; 6HR MAX TEMP:  17; 6HR PCP:  0.05;

EAGLE RIVER    LGT SNOW  18  12  78 S6        29.73F WCI  10
6HR MIN TEMP:  12; 6HR MAX TEMP:  18;

LAND O LAKES   LGT SNOW  20  14  79 S7        29.72F WCI  11
6HR MIN TEMP:  13; 6HR MAX TEMP:  20;

PHILLIPS       LGT SNOW  19  17  92 SE5       29.71R WCI  12
6HR MIN TEMP:  14; 6HR MAX TEMP:  19;

TOMAHAWK       LGT SNOW  17  14  88 CALM      29.74S
6HR MIN TEMP:  13; 6HR MAX TEMP:  17;

MEDFORD        LGT SNOW  18  16  90 SE7       29.73S WCI   9
6HR MIN TEMP:  14; 6HR MAX TEMP:  18;

MERRILL        LGT SNOW  18  15  89 SE10      29.75F WCI   6
6HR MIN TEMP:  14; 6HR MAX TEMP:  18; 6HR PCP:  0.01;

$$

WIZ029-030-035-036-043>047-261900-
CENTRAL WISCONSIN

CITY           SKY/WX    TMP DP  RH WIND       PRES   REMARKS
WAUSAU         LGT SNOW  18  14  84 SE10      29.76F FOG     WCI   6
6HR MIN TEMP:  14; 6HR MAX TEMP:  18; 6HR PCP:  0.03;

MOSINEE        LGT SNOW  18  18 100 SE10      29.78S VSB 1   WCI   6
MARSHFIELD     MIX PCPN  20  17  88 SE10      29.75F FOG     WCI   9
6HR MIN TEMP:  16; 6HR MAX TEMP:  20; 6HR PCP:  0.01;

STEVENS POINT  MIX PCPN  18  15  88 SE6       29.80F WCI  10
6HR MIN TEMP:  12; 6HR MAX TEMP:  18;

WAUPACA        LGT SNOW  23  19  82 SE7       29.84S VSB 1   WCI  15
6HR MIN TEMP:  16; 6HR MAX TEMP:  23;

WAUTOMA        LGT SNOW  21  18  86 SE9       29.84R FOG     WCI  11
6HR MIN TEMP:  13; 6HR MAX TEMP:  22; 6HR PCP: TRACE;

WISC RAPIDS    LGT SNOW  20  16  84 SE7       29.80S FOG     WCI  11
6HR MIN TEMP:  15; 6HR MAX TEMP:  20; 6HR PCP:  0.05;

CAMP DOUGLAS   FLURRIES  21  21 100 SE6       29.79S WCI  14
                                      6HR PCP:  0.06;

$$

WIZ011>013-019>022-031-037>040-048>050-261900-
NORTHEAST WISCONSIN

CITY           SKY/WX    TMP DP  RH WIND       PRES   REMARKS
ANTIGO         LGT SNOW  16  13  88 S14       29.78S VSB 3/4 WCI   1
6HR MIN TEMP:  12; 6HR MAX TEMP:  16;

SHAWANO        LGT SNOW  24  18  77 SE7       29.85F WCI  16
6HR MIN TEMP:  14; 6HR MAX TEMP:  24;

OCONTO         CLOUDY    23  19  85 CALM      29.88F
6HR MIN TEMP:   8; 6HR MAX TEMP:  24;

STURGEON BAY   CLOUDY    25  18  74 S10       29.90F WCI  15
6HR MIN TEMP:  10; 6HR MAX TEMP:  25;

GREEN BAY      CLOUDY    25  17  72 S9        29.88S WCI  15
6HR MIN TEMP:  12; 6HR MAX TEMP:  25;

MANITOWOC      CLOUDY    27  20  75 S12       29.89F WCI  17
6HR MIN TEMP:  14; 6HR MAX TEMP:  27;

APPLETON       LGT SNOW  23  16  74 SE9       29.85S VSB 1   WCI  13
CLINTONVILLE   LGT SNOW  23  18  80 SE8       29.84F VSB 1   WCI  14
OSHKOSH        LGT SNOW  24  17  74 S15       29.85F WCI  11
6HR MIN TEMP:  16; 6HR MAX TEMP:  24; 6HR PCP: TRACE;

$$

WIZ032>034-041-042-053>061-261900-
SOUTHWEST WISCONSIN

CITY           SKY/WX    TMP DP  RH WIND       PRES   REMARKS
LA CROSSE      CLOUDY    26  22  84 S13       29.76F FOG     WCI  15
6HR MIN TEMP:  22; 6HR MAX TEMP:  26; 6HR PCP:  0.03;

SPARTA         CLOUDY    24  20  87 S6        29.78F FOG     WCI  17
6HR MIN TEMP:  19; 6HR MAX TEMP:  24;

VIROQUA        CLOUDY    22  22  96 S9        29.75F WCI  12
6HR MIN TEMP:  18; 6HR MAX TEMP:  22;

BOSCOBEL       CLOUDY    24  18  77 S5        29.82F WCI  18
6HR MIN TEMP:  20; 6HR MAX TEMP:  24; 6HR PCP:  0.05;

PRAIRIE DU CHI CLOUDY    26  21  80 CALM      29.80F
6HR MIN TEMP:  21; 6HR MAX TEMP:  26;

PLATTEVILLE    CLOUDY    22  19  90 SE10      29.80F WCI  11
6HR MIN TEMP:  18; 6HR MAX TEMP:  22;

$$

WIZ056-057-062-063-064-067-068-261900-
SOUTH CENTRAL WISCONSIN

CITY           SKY/WX    TMP DP  RH WIND       PRES   REMARKS
REEDSBURG      LGT SNOW  21  18  88 S3        29.81S
6HR MIN TEMP:  16; 6HR MAX TEMP:  21;

BARABOO/DELLS  MIX PCPN  21  18  88 S9        29.80F WCI  10
6HR MIN TEMP:  16; 6HR MAX TEMP:  21;

LONE ROCK      CLOUDY    23  18  81 SE5       29.83S WCI  17
6HR MIN TEMP:  17; 6HR MAX TEMP:  23; 6HR PCP:  0.06;

MINERAL POINT  CLOUDY    23  19  86 SE10      29.79F WCI  12
MADISON        LGT SNOW  21  17  84 S12       29.83F FOG     WCI   9
6HR MIN TEMP:  16; 6HR MAX TEMP:  21; 6HR PCP:  0.04;

MIDDLETON      CLOUDY    22  17  80 S8        29.83F WCI  13
6HR MIN TEMP:  18; 6HR MAX TEMP:  22;

WATERTOWN      LGT SNOW  24  20  87 S9        29.84F WCI  14
6HR MIN TEMP:  13; 6HR MAX TEMP:  24;

MONROE         CLOUDY    21  19  93 S8        29.82F WCI  12
JANESVILLE     NOT AVBL
$$

WIZ051-052-058>065-066-070>072-261900-
SOUTHEAST WISCONSIN

CITY           SKY/WX    TMP DP  RH WIND       PRES   REMARKS
MILWAUKEE      CLOUDY    26  15  63 SW7       29.89F WCI  18
6HR MIN TEMP:  18; 6HR MAX TEMP:  27;

WAUKESHA       CLOUDY    25  14  63 S7        29.89F WCI  17
MILWAUKEE/TIMM CLOUDY    27  14  59 S7        29.90S WCI  19
RACINE         CLOUDY    27  16  63 SE8       29.91F WCI  19
6HR MIN TEMP:  17; 6HR MAX TEMP:  27;

BURLINGTON     PTSUNNY   26  17  69 S8        29.88F WCI  17
6HR MIN TEMP:  10; 6HR MAX TEMP:  26;

KENOSHA        CLOUDY    27  17  66 SW7       29.89F WCI  19
6HR MIN TEMP:  14; 6HR MAX TEMP:  27;

FOND DU LAC    LGT SNOW  25  17  72 S13       29.85F WCI  14
6HR MIN TEMP:  13; 6HR MAX TEMP:  25; 6HR PCP: TRACE;

SHEBOYGAN      CLOUDY    27  17  66 S9        29.87F WCI  18
6HR MIN TEMP:  12; 6HR MAX TEMP:  27;

WEST BEND      CLOUDY    27  16  63 S5        29.86F WCI  21
JUNEAU         LGT SNOW  23  18  83 S12       29.85F WCI  11
6HR MIN TEMP:  13; 6HR MAX TEMP:  23;

$$

LSZ147-162-261900-
LAKE SUPERIOR

STATION/POSITION TIME  TEMP    WIND        PRES    WAVE
                       AIR SEA DIR/SP/G            HT/PER
                 (UTC) (F)     (DEG/KT/KT) (MB)    (FT/S)
DEVILS ISLAND    1800   23     170/  5/  7 1007.4F
PORT WING        1740   25     180/  6/  8 1006.1S
SAXON HARBOR     1700   22     180/  2/  8 1006.8R
$$

LMZ867-665-643>646-261900-
LAKE MICHIGAN

STATION/POSITION TIME  TEMP    WIND        PRES    WAVE


USA.gov is the U.S. government's official web portal to all federal, state and local government web resources and services.